Cleveland, OH

12:01 PM EST on December 04, 2016 (GMT -0500)
Cleveland-Hopkins International

Weather History for KCLE - November, 2014

Change the Weather History Date:

Thursday, November 20, 2014

  Actual Average Record
Temperature  
Mean Temperature 24 °F 42 °F  
Max Temperature 27 °F 49 °F 73 °F (1931)
Min Temperature 21 °F 36 °F 15 °F (1951)
Degree Days  
Heating Degree Days 41 23  
Month to date heating degree days 559 385  
Since 1 July heating degree days 1059 845  
Cooling Degree Days 0 0  
Month to date cooling degree days 0 0  
Year to date cooling degree days 657 816  
Moisture  
Dew Point 15 °F    
Average Humidity 70    
Maximum Humidity 84    
Minimum Humidity 55    
Precipitation  
Precipitation 0.05 in 0.13 in 1.53 in (1950)
Month to date precipitation 2.20 2.42  
Year to date precipitation 40.62 34.84  
Snow  
Snow 0.90 in 0.10 in - ()
Month to date snowfall 10.3 2.1  
Since 1 July snowfall 10.3 2.3  
Since 1 September snowfall 10.3 2.3  
Snow Depth 2.00 in    
Sea Level Pressure  
Sea Level Pressure 30.08 in    
Wind  
Wind Speed 18 mph (WSW)    
Max Wind Speed 30 mph    
Max Gust Speed 37 mph    
Visibility 7 miles    
Events Snow    
T = Trace of Precipitation, MM = Missing Value Source: NWS Daily Summary

Daily Weather History Graph

Daily Weather History Graph

Search for Another Location

Airport or City:

Trip Planner

Search our weather history database for the weather conditions in past years. The results will help you decide how hot, cold, wet, or windy it might be!

Date:

Astronomy

Nov. 20, 2014 Rise Set
Actual Time 7:21 AM EST 5:03 PM EST
Civil Twilight 6:51 AM EST 5:34 PM EST
Nautical Twilight 6:17 AM EST 6:07 PM EST
Astronomical Twilight 5:45 AM EST 6:40 PM EST
Moon 5:14 AM EST (11/20) 4:08 PM EST (11/20)
Length of Visible Light 10h 42m
Length of Day
9h 42m
Waning Crescent, 4% of the Moon is Illuminated
Nov 20
Waning Crescent
Nov 22
New
Nov 29
First Quarter
Dec 6
Full
Dec 14
Last Quarter

Hourly Weather History & Observations

Time (EST) Temp. Windchill Dew Point Humidity Pressure Visibility Wind Dir Wind Speed Gust Speed Precip Events Conditions
12:51 AM 26.1 °F 10.7 °F 15.1 °F 63% 29.98 in 9.0 mi WSW 25.3 mph 32.2 mph 0.00 in Snow Light Snow
1:51 AM 25.0 °F 10.2 °F 15.1 °F 66% 29.98 in 9.0 mi WSW 21.9 mph 29.9 mph 0.00 in Snow Light Snow
2:51 AM 24.1 °F 10.1 °F 15.1 °F 69% 29.99 in 9.0 mi WSW 18.4 mph 29.9 mph 0.00 in Snow Light Snow
3:51 AM 24.1 °F 10.1 °F 12.9 °F 62% 29.99 in 10.0 mi WSW 18.4 mph - 0.00 in   Overcast
4:51 AM 23.0 °F 10.1 °F 12.0 °F 63% 30.00 in 10.0 mi SW 15.0 mph 25.3 mph N/A   Overcast
5:51 AM 23.0 °F 10.6 °F 12.0 °F 63% 30.01 in 10.0 mi WSW 13.8 mph 23.0 mph N/A   Overcast
6:51 AM 21.9 °F 8.2 °F 12.0 °F 66% 30.01 in 10.0 mi SW 16.1 mph 21.9 mph N/A   Overcast
7:51 AM 21.9 °F 7.3 °F 12.0 °F 66% 30.03 in 10.0 mi WSW 18.4 mph 26.5 mph N/A   Overcast
8:51 AM 23.0 °F 9.6 °F 12.0 °F 63% 30.04 in 10.0 mi SW 16.1 mph 25.3 mph N/A   Overcast
9:51 AM 24.1 °F 9.8 °F 12.0 °F 60% 30.04 in 10.0 mi SW 19.6 mph 29.9 mph N/A   Scattered Clouds
10:51 AM 25.0 °F 9.5 °F 12.9 °F 60% 30.05 in 10.0 mi WSW 24.2 mph 33.4 mph N/A   Scattered Clouds
11:51 AM 26.1 °F 13.6 °F 12.9 °F 58% 30.04 in 10.0 mi WSW 16.1 mph 33.4 mph N/A   Mostly Cloudy
12:51 PM 25.0 °F 9.2 °F 12.0 °F 58% 30.03 in 10.0 mi WSW 25.3 mph 32.2 mph N/A   Mostly Cloudy
1:51 PM 26.1 °F 10.7 °F 12.0 °F 55% 30.03 in 10.0 mi SW 25.3 mph 33.4 mph N/A   Mostly Cloudy
2:51 PM 26.1 °F 12.7 °F 12.9 °F 58% 30.04 in 10.0 mi West 18.4 mph - N/A   Mostly Cloudy
3:51 PM 25.0 °F 11.3 °F 10.9 °F 55% 30.06 in 9.0 mi WSW 18.4 mph 32.2 mph 0.00 in Snow Light Snow
4:51 PM 25.0 °F 8.6 °F 12.0 °F 58% 30.09 in 8.0 mi West 27.6 mph 34.5 mph 0.00 in Snow Light Snow
5:51 PM 24.1 °F 10.1 °F 12.9 °F 62% 30.10 in 9.0 mi WSW 18.4 mph 31.1 mph 0.00 in Snow Light Snow
6:51 PM 23.0 °F 8.7 °F 16.0 °F 74% 30.14 in 9.0 mi WSW 18.4 mph - 0.00 in Snow Light Snow
6:54 PM 23.0 °F 8.3 °F 16.0 °F 74% 30.10 in 2.0 mi West 19.6 mph - 0.00 in Snow Light Snow
7:00 PM 21.9 °F 8.2 °F 17.1 °F 82% 30.10 in 3.0 mi WSW 16.1 mph - 0.00 in Snow Light Snow
7:51 PM 23.0 °F 10.6 °F 17.1 °F 78% 30.14 in 6.0 mi WSW 13.8 mph - 0.00 in Snow Light Snow
7:57 PM 23.0 °F 9.6 °F 17.1 °F 78% 30.11 in 2.0 mi WSW 16.1 mph - 0.00 in Snow Light Snow
8:30 PM 23.0 °F 10.1 °F 18.0 °F 81% 30.11 in 3.0 mi WSW 15.0 mph - 0.00 in Snow Light Snow
8:51 PM 23.0 °F 10.1 °F 17.1 °F 78% 30.15 in 9.0 mi SW 15.0 mph - 0.00 in Snow Light Snow
9:51 PM 24.1 °F 11.0 °F 16.0 °F 71% 30.17 in 9.0 mi WSW 16.1 mph - 0.00 in Snow Light Snow
10:03 PM 23.0 °F 9.2 °F 15.1 °F 72% 30.14 in 1.5 mi WNW 17.3 mph 31.1 mph 0.00 in Snow Light Snow
10:10 PM 21.9 °F 5.5 °F 16.0 °F 78% 30.15 in 0.8 mi West 24.2 mph 34.5 mph 0.00 in Snow Light Snow
10:28 PM 21.0 °F 5.0 °F 18.0 °F 88% 30.15 in 0.5 mi West 21.9 mph 32.2 mph 0.00 in Snow Snow
10:39 PM 21.9 °F 6.5 °F 18.0 °F 85% 30.16 in 2.5 mi West 20.7 mph - 0.00 in Snow Light Snow
10:45 PM 21.2 °F 7.3 °F 17.6 °F 86% 30.16 in 0.5 mi West 16.1 mph - 0.00 in Snow Snow
10:51 PM 21.9 °F 11.0 °F 18.0 °F 85% 30.19 in 0.8 mi WNW 10.4 mph - 0.01 in Snow Light Snow
10:59 PM 21.9 °F 11.0 °F 17.1 °F 82% 30.16 in 3.0 mi West 10.4 mph - 0.00 in Snow Light Snow
11:28 PM 23.0 °F 10.6 °F 16.0 °F 74% 30.17 in 5.0 mi NW 13.8 mph - 0.00 in Snow Light Snow
11:47 PM 21.2 °F 9.5 °F 17.6 °F 86% 30.18 in 1.8 mi WNW 11.5 mph - 0.00 in Snow Light Snow
11:51 PM 21.9 °F 9.8 °F 17.1 °F 82% 30.22 in 0.8 mi WNW 12.7 mph - 0.01 in Snow Light Snow
11:59 PM 21.9 °F 12.5 °F 17.1 °F 82% 30.18 in 3.0 mi West 8.1 mph - 0.00 in Snow Light Snow